FW7380 Weather Reports


time (UTC)temp
C
wind
direction
speed
KPH
gust
KPH
rain 1hr
cm
rain 24hr
cm
rain mn
cm
humidity
%
barometer
mb
20260505013037 16 102 6.4 19.3 0.00 0.00 0.00 52 1008.9
20260505011544 16 147 1.6 17.7 0.00 0.00 0.00 50 1008.6
20260505010053 17 52 3.2 11.3 0.00 0.00 0.00 48 1008.4
20260505004538 17 91 3.2 8.0 0.00 0.00 0.00 45 1008.0
20260505003037 17 125 1.6 4.8 0.00 0.00 0.00 43 1007.6
20260505001539 18 175 0.0 6.4 0.00 0.00 0.00 43 1007.2
20260504234541 18 153 1.6 9.7 0.00 0.00 0.00 40 1006.8
20260504233039 19 146 1.6 14.5 0.00 0.00 0.00 39 1006.6
20260504231538 20 131 3.2 11.3 0.00 0.00 0.00 37 1006.5
20260504230040 21 0 3.2 14.5 0.00 0.00 0.00 35 1006.2
20260504224538 21 140 6.4 24.1 0.00 0.00 0.00 35 1006.1
20260504223037 21 203 4.8 20.9 0.00 0.00 0.00 34 1006.0
20260504221542 21 132 4.8 16.1 0.00 0.00 0.00 35 1006.0
20260504220048 21 143 3.2 12.9 0.00 0.00 0.00 35 1006.0
20260504214538 21 140 6.4 16.1 0.00 0.00 0.00 35 1006.0
20260504213053 21 163 8.0 17.7 0.00 0.00 0.00 34 1005.8
20260504211541 21 171 6.4 16.1 0.00 0.00 0.00 34 1006.1
20260504210038 21 96 6.4 25.7 0.00 0.00 0.00 35 1006.0
20260504204542 21 141 6.4 30.6 0.00 0.00 0.00 34 1005.9
20260504203040 21 165 8.0 22.5 0.00 0.00 0.00 33 1005.9
20260504201539 22 169 6.4 19.3 0.00 0.00 0.00 33 1005.9
20260504200038 21 172 9.7 20.9 0.00 0.00 0.00 32 1005.8
20260504194538 21 169 4.8 22.5 0.00 0.00 0.00 34 1005.9
20260504193053 21 155 8.0 19.3 0.00 0.00 0.00 33 1005.9
20260504191541 21 146 4.8 17.7 0.00 0.00 0.00 32 1005.9
20260504190042 21 86 6.4 20.9 0.00 0.00 0.00 33 1006.1
20260504184542 21 157 11.3 20.9 0.00 0.00 0.00 32 1006.2
20260504183049 21 346 9.7 27.4 0.00 0.00 0.00 34 1006.1
20260504181539 20 131 11.3 27.4 0.00 0.00 0.00 33 1006.5
20260504180058 20 120 4.8 30.6 0.00 0.00 0.00 34 1006.3
20260504174541 20 113 8.0 24.1 0.00 0.00 0.00 35 1006.6
20260504173039 20 122 8.0 25.7 0.00 0.00 0.00 36 1006.6
20260504171541 20 188 8.0 32.2 0.00 0.00 0.00 35 1006.7
20260504081538 6 138 1.6 6.4 0.00 0.00 0.00 65 1009.5
20260504044538 3 0 0.0 1.6 0.00 0.03 0.00 72 1009.6
20260504043051 2 143 0.0 0.0 0.00 0.03 0.00 72 1009.5
20260504041539 3 0 0.0 0.0 0.00 0.03 0.00 73 1009.4
20260504040039 3 0 0.0 3.2 0.00 0.03 0.00 72 1009.4
20260504034544 3 165 0.0 0.0 0.00 0.03 0.03 71 1009.3
20260504033041 3 0 0.0 0.0 0.00 0.03 0.03 71 1009.2
20260504031538 3 0 0.0 0.0 0.00 0.03 0.03 69 1009.3
20260504030042 4 0 0.0 0.0 0.00 0.03 0.03 67 1009.2
20260504024539 5 0 0.0 0.0 0.00 0.03 0.03 65 1009.2
20260504023040 5 0 0.0 0.0 0.00 0.03 0.03 64 1009.2
20260504021537 5 0 0.0 0.0 0.00 0.03 0.03 64 1009.2
20260504020046 5 0 0.0 0.0 0.00 0.03 0.03 63 1009.2
20260504014549 5 0 0.0 0.0 0.00 0.03 0.03 62 1009.0